SCP
0 0 0 0 0 0 0 0 0 0 0 0 0 0 0 0 0 0 0 0 0 0 0 0 0 0 0 0 0 0 0 0 0 0 0 0 0 0 0 0 0 0 0
0 0 0 0 0 0 1 1 0 0 0 0 0 0 0 0 0 0 0 0 0 0 0 0 0 0 0 0 0 0 0 0 0 0 0 0 0 0 0 0 0 0 0
0 0 0 0 1 1 1 1 0 0 0 0 0 0 0 0 0 0 0 0 0 0 0 0 0 0 0 0 0 0 0 0 0 0 0 0 0 0 0 0 0 0 0
0 0 0 0 1 1 1 1 1 0 0 0 0 0 0 0 0 0 0 0 0 0 0 0 0 0 0 0 0 0 0 0 0 0 0 0 0 0 0 0 0 0 0
0 0 0 0 1 1 1 1 1 0 0 0 0 0 0 0 0 0 0 0 0 0 0 0 0 0 0 0 0 0 0 0 0 0 0 0 0 0 0 0 0 0 0
0 0 0 0 1 1 1 1 1 0 0 0 0 0 0 0 0 0 0 0 0 0 0 0 0 0 0 0 0 0 0 0 0 0 0 0 0 0 0 0 0 0 0
0 0 0 0 1 1 1 1 1 0 0 0 0 0 0 0 0 0 0 0 0 0 0 0 0 0 0 0 0 0 0 0 0 0 0 0 0 0 0 0 0 0 0
0 0 0 0 0 1 1 1 0 0 0 0 0 0 0 0 0 0 0 0 0 0 0 0 0 0 0 0 0 0 0 0 0 0 0 0 0 0 0 0 0 0 0
0 0 0 0 0 0 0 0 0 0 0 0 0 0 0 0 0 0 0 0 0 0 0 0 0 0 0 0 0 0 0 0 0 0 0 0 0 0 0 0 0 0 0
0 0 0 0 0 0 0 0 0 0 0 0 0 0 0 0 0 0 0 0 0 0 0 0 0 0 0 0 0 0 0 0 0 0 0 0 0 0 0 0 0 0 0
0 0 0 0 0 0 0 0 0 0 0 0 0 0 0 0 0 0 0 0 0 0 0 0 0 0 0 0 0 0 0 0 0 0 0 0 0 0 0 0 0 0 0
0 0 0 0 0 0 0 0 0 0 0 0 0 0 0 0 0 0 0 0 0 0 0 0 0 0 0 0 0 0 0 0 0 0 0 0 0 0 0 0 0 0 0
0 0 0 0 0 0 0 0 0 0 0 0 0 0 0 0 0 0 0 0 0 0 0 0 0 0 0 0 0 0 0 0 0 0 0 0 0 0 0 0 0 0 0
0 0 0 0 0 0 0 0 0 0 0 0 0 0 0 0 0 0 0 0 0 0 0 0 0 0 0 0 0 0 0 0 0 0 0 0 0 0 0 0 0 0 0
0 0 0 0 0 0 0 0 0 0 0 0 0 0 0 0 0 0 0 0 0 0 0 0 0 0 0 0 0 0 0 0 0 0 0 0 0 0 0 0 0 0 0
0 0 0 0 0 0 0 0 0 0 0 0 0 0 0 0 0 0 0 0 0 0 0 0 0 0 0 0 0 0 0 0 0 0 0 0 0 0 0 0 0 0 0
0 0 0 0 0 0 0 0 0 0 0 0 0 0 0 0 0 0 0 0 0 0 0 0 0 0 0 0 0 0 0 0 0 0 0 0 0 0 0 0 0 0 0
0 0 0 0 0 0 0 0 0 0 0 0 0 0 0 0 0 0 0 0 0 0 0 0 0 0 0 0 0 0 0 0 0 0 0 0 0 0 0 0 0 0 0
0 0 0 0 0 0 0 0 0 0 0 0 0 0 0 0 0 0 0 0 0 0 0 0 0 0 0 0 0 0 0 0 0 0 0 0 0 0 0 0 0 0 0
0 0 0 0 0 0 0 0 0 0 0 0 0 0 0 0 0 0 0 0 0 0 0 0 0 0 0 0 0 0 0 0 0 0 0 0 0 0 0 0 0 0 0
0 0 0 0 0 0 0 0 0 0 0 0 0 0 0 0 0 0 0 0 0 0 0 0 0 0 0 0 0 0 0 0 0 0 0 0 0 0 0 0 0 0 0
0 0 0 0 0 0 0 0 0 0 0 0 0 0 0 0 0 0 0 0 0 0 0 0 0 0 0 0 0 0 0 0 0 0 0 0 0 0 0 0 0 0 0
0 0 0 0 0 0 0 0 0 0 0 0 0 0 0 0 0 0 0 0 0 0 0 0 0 0 0 0 0 0 0 0 0 0 0 0 0 0 0 0 0 0 0
0 0 0 0 0 0 0 0 0 0 0 0 0 0 0 0 0 0 0 0 0 0 0 0 0 0 0 0 0 0 0 0 0 0 0 0 0 0 0 0 0 0 0
0 0 0 0 0 0 0 0 0 0 0 0 0 0 0 0 0 0 0 0 0 0 0 0 0 0 0 0 0 0 0 0 0 0 0 0 0 0 0 0 0 0 0
0 0 0 0 0 0 0 0 0 0 0 0 0 0 0 0 0 0 0 0 0 0 0 0 0 0 0 0 0 0 0 0 0 0 0 0 0 0 0 0 0 0 0
Wind_Speed
1 2 3 4 5 5 6 6 7 7 7 7 7 7 7 8 8 8 8 8 8 8 8 8 9 9 9 9 9 9 9 9 9 8 8 8 8 9 9 8 7 5 8
4 3 4 4 5 5 5 6 6 6 6 6 6 6 6 6 7 7 7 7 7 8 7 8 8 8 8 9 9 9 9 8 8 7 7 7 8 8 8 8 7 5 7
5 3 4 4 5 5 5 5 6 5 5 5 5 6 6 5 6 6 6 6 7 7 7 7 8 8 8 8 8 8 8 8 8 7 6 3 4 7 8 7 7 6 6
5 3 3 4 5 5 5 5 5 5 4 4 5 5 5 5 5 5 5 6 6 6 6 7 7 7 7 8 8 7 7 7 7 6 3 2 2 6 6 6 6 6 5
4 3 3 4 4 4 4 4 4 4 4 4 4 4 4 4 4 4 5 5 5 5 5 6 6 6 7 7 7 6 6 6 6 4 2 2 2 4 5 5 5 5 5
4 3 3 5 4 4 4 3 3 3 3 3 3 3 4 4 3 4 4 4 5 5 5 5 5 5 6 6 6 6 6 6 5 2 2 1 1 4 5 5 4 4 4
3 2 3 4 5 5 4 3 2 2 2 2 2 2 3 3 3 3 3 4 4 4 4 4 4 4 5 5 5 5 6 5 3 2 1 1 1 4 4 4 4 4 4
4 3 2 4 3 3 3 3 3 2 1 1 1 2 2 2 2 3 2 3 3 4 3 4 4 3 3 4 4 4 4 4 3 2 1 1 2 3 4 4 3 3 3
3 3 2 2 2 2 2 2 2 2 2 1 0 1 1 1 2 2 2 2 2 3 3 3 3 3 2 3 4 4 3 3 2 1 1 1 2 3 3 3 3 3 3
3 2 2 2 2 1 1 1 2 2 2 2 1 1 0 1 1 1 1 1 2 2 3 3 3 2 2 2 2 3 2 2 2 1 1 1 3 3 3 3 3 3 3
2 1 1 1 1 1 1 1 1 1 1 2 1 1 1 1 1 1 1 0 1 2 2 2 2 2 1 2 1 1 1 1 1 1 1 2 4 4 4 3 4 4 3
1 1 1 1 1 1 1 1 0 0 0 1 1 1 1 1 1 1 1 0 1 1 1 1 1 1 0 0 1 0 1 2 1 1 2 4 4 4 4 4 5 4 4
1 0 1 0 0 0 0 1 0 0 0 1 1 1 1 1 1 1 1 1 1 1 1 1 1 0 1 1 1 1 2 2 1 2 2 5 5 5 5 5 5 5 5
1 1 1 1 0 0 0 1 1 0 1 1 1 1 1 1 1 2 1 1 1 1 1 1 1 1 1 2 2 2 2 2 2 2 3 5 6 6 6 5 5 6 6
1 1 1 1 1 1 1 1 1 1 1 1 1 2 2 2 2 2 2 2 2 1 2 1 2 2 2 2 2 2 3 4 4 3 2 5 6 6 7 6 6 7 7
2 2 2 1 1 1 1 1 1 2 1 1 2 2 2 2 2 2 2 2 2 2 2 2 2 2 2 2 2 3 3 3 4 4 3 4 7 7 7 7 7 7 8
2 2 2 2 1 2 2 2 2 2 1 1 2 2 2 2 2 2 2 2 2 2 2 2 2 1 1 1 2 3 3 3 4 5 4 4 4 6 8 8 8 8 8
2 2 2 2 2 2 2 2 2 2 2 2 2 2 2 2 2 2 2 2 2 2 2 2 2 1 1 2 2 2 2 2 4 5 5 4 4 4 6 8 9 9 9
2 2 2 2 2 3 2 2 2 2 2 2 2 2 2 2 2 2 3 2 3 2 2 2 2 2 2 2 2 2 2 3 4 4 5 5 5 5 4 6 8 9 9
1 1 2 2 2 2 2 1 1 2 2 2 2 2 3 2 2 2 2 2 2 2 2 2 2 2 2 2 2 3 3 3 3 4 4 4 5 5 5 5 5 6 8
1 1 2 2 2 1 1 1 2 2 2 2 2 2 3 3 3 2 2 2 2 2 3 2 2 2 2 1 0 2 3 3 3 3 3 3 4 5 5 5 4 4 4
2 2 2 3 2 2 2 2 2 2 2 3 2 2 3 3 3 3 3 3 3 2 2 2 2 1 2 2 2 1 2 3 2 3 3 4 4 3 4 5 5 5 4
2 3 3 3 3 3 3 2 2 1 1 2 2 2 3 3 3 3 4 3 3 3 3 3 3 3 2 2 2 3 2 3 3 2 3 4 4 3 4 4 5 5 5
3 3 3 3 3 2 2 2 3 2 3 3 2 2 3 3 3 3 4 3 3 3 4 4 3 3 4 3 2 2 3 2 2 2 3 3 4 4 5 4 4 4 5
4 3 3 3 3 2 3 3 3 3 3 2 2 2 2 2 3 3 3 3 3 3 3 4 4 4 3 4 3 2 3 3 3 3 4 4 3 3 4 5 4 4 4
4 4 3 3 4 3 2 2 3 3 3 2 2 2 2 2 2 2 2 2 3 3 3 4 4 4 4 4 3 3 3 3 3 3 4 4 4 4 4 4 4 4 4
Wind_Direction
200 190 124 103 96 89 85 82 81 83 82 82 80 86 93 95 97 100 105 111 111 112 116 118 118 115 113 110 107 106 103 99 100 98 98 99 102 101 99 96 89 83 90
157 154 118 105 99 91 86 84 80 84 86 85 86 86 91 99 100 106 110 116 117 118 118 121 122 120 116 111 109 107 106 102 99 92 87 96 103 105 101 98 96 95 92
127 135 128 104 96 91 86 84 82 79 85 87 89 91 90 99 104 105 110 116 117 121 123 125 124 122 120 117 112 108 107 104 99 89 83 80 98 108 106 100 99 100 99
122 122 127 102 95 93 88 85 85 82 82 91 92 93 98 100 108 106 109 113 118 120 125 127 125 125 124 122 116 112 108 105 97 88 82 77 94 109 111 105 101 100 103
109 109 117 100 100 96 93 88 84 82 81 86 95 97 100 102 105 111 117 117 113 114 117 125 129 129 126 125 121 117 111 106 89 79 86 85 91 111 113 107 108 104 101
101 98 106 96 97 94 91 88 87 85 88 87 103 105 102 97 102 104 116 126 125 118 116 120 128 133 129 129 127 123 116 105 84 83 86 86 97 112 114 110 114 117 112
103 100 109 99 101 90 77 72 74 79 91 102 105 120 116 107 105 104 111 126 133 131 132 126 130 136 140 138 136 128 120 105 92 94 97 105 115 117 126 125 119 123 127
119 108 108 95 85 91 85 76 60 47 41 100 110 132 129 128 121 113 117 131 137 146 149 147 136 137 151 151 145 136 121 109 100 112 123 152 130 134 137 136 137 138 132
109 105 92 97 84 67 74 79 57 44 23 11 61 147 125 131 143 140 124 148 147 153 160 157 150 151 152 167 155 140 124 102 121 146 166 177 154 160 158 151 149 158 150
81 85 87 61 51 51 26 60 41 27 12 357 334 298 206 157 169 162 143 164 169 164 166 173 174 163 162 160 159 152 128 113 143 173 201 188 175 180 180 175 172 170 168
59 43 85 77 50 25 12 14 29 9 1 360 312 308 292 199 179 166 165 146 175 174 179 188 192 179 153 160 151 122 125 160 174 203 210 197 195 198 198 195 192 194 193
2 6 40 70 78 31 0 6 10 8 320 312 248 236 243 206 198 174 177 183 167 189 197 212 242 194 135 175 186 190 198 199 195 213 216 212 211 214 215 215 211 208 205
267 301 357 16 138 105 327 329 302 310 265 277 259 226 220 195 199 188 167 169 181 202 196 227 269 225 187 199 207 211 214 211 205 224 223 220 223 223 223 228 225 220 217
282 291 303 314 293 257 258 279 278 232 246 256 276 226 187 192 209 206 196 194 192 200 205 208 217 210 210 211 208 214 225 215 213 220 223 227 229 229 228 236 238 231 225
266 277 267 249 247 273 292 282 297 255 234 250 256 244 203 197 210 216 210 202 200 205 203 201 203 203 211 218 218 221 230 230 219 218 228 228 234 235 235 241 250 248 237
264 262 267 255 239 245 257 263 271 270 245 237 242 251 226 201 202 212 212 209 207 210 217 208 205 208 223 225 228 226 228 233 228 223 225 229 234 239 240 243 250 257 247
252 262 258 259 256 247 251 249 262 267 256 248 251 252 244 208 204 215 204 214 211 205 220 224 211 202 232 236 244 245 237 237 235 228 230 231 232 237 241 243 247 253 253
242 265 266 276 281 263 253 248 246 262 250 247 258 252 251 220 206 213 204 214 216 202 204 212 203 205 229 236 244 255 250 244 243 235 229 230 229 234 239 244 247 249 253
238 240 264 270 269 271 269 263 257 260 245 233 241 245 255 232 206 206 211 215 207 203 206 215 220 201 220 237 246 256 254 252 248 242 233 227 226 229 233 241 244 248 251
250 245 248 267 267 275 281 292 285 274 258 239 233 246 247 236 219 203 212 220 211 203 212 206 221 225 215 227 259 278 274 263 258 240 235 235 229 227 229 232 235 243 249
295 289 267 270 265 269 266 262 266 261 256 251 242 242 243 233 220 200 212 214 215 209 210 203 212 218 229 183 226 299 295 269 259 254 237 232 235 231 227 227 228 231 239
262 269 274 277 267 249 244 239 239 244 244 239 241 249 242 226 214 207 199 213 220 217 209 202 199 220 237 205 193 228 295 300 264 259 242 231 234 240 239 237 230 227 226
277 268 272 275 272 261 263 268 274 285 287 263 253 246 239 224 218 211 209 211 217 211 211 214 206 210 229 255 215 198 208 246 297 270 243 241 235 229 236 244 237 234 228
284 278 273 275 279 275 253 245 229 237 252 257 251 250 249 222 219 216 210 208 218 223 218 222 229 217 212 233 248 237 239 232 230 282 279 255 243 236 230 235 239 238 233
305 289 276 280 278 271 250 239 237 241 252 267 270 267 250 231 219 212 210 207 218 226 227 226 229 223 223 227 231 239 252 260 246 237 269 281 273 251 241 233 228 233 239
319 317 293 278 270 267 259 251 246 251 255 266 265 262 252 234 226 213 212 213 227 227 230 233 235 223 232 236 239 240 235 233 234 234 246 262 270 269 257 245 232 229 237